Estación de Colina

Ultimos registro cada 15 minutos 83
Estación Fecha / Hora Temperatura Humedad Lluvia Velocidad Dirección Radiación Presion
83 Colina 04-05-2026 20:30 11,3 61 0 0 180 0 1014,7
82 Colina 04-05-2026 20:15 11,4 61 0 0 180 0 1014,5
81 Colina 04-05-2026 20:00 11,9 60 0 0 180 0 1014,5
80 Colina 04-05-2026 19:45 12,7 60 0 0 180 0 1014,4
79 Colina 04-05-2026 19:30 13,2 59 0 0 180 0 1014,3
78 Colina 04-05-2026 19:15 13,8 57 0 0 180 0 1014,3
77 Colina 04-05-2026 19:00 14,2 55 0 0 180 0 1014,3
76 Colina 04-05-2026 18:45 14,6 53 0 0 180 0 1014,1
75 Colina 04-05-2026 18:30 16 51 0 0 180 0 1013,8
74 Colina 04-05-2026 18:15 17,6 49 0 0 180 0 1013,5
73 Colina 04-05-2026 18:00 19 45 0 0 180 7 1013,2
72 Colina 04-05-2026 17:45 20,7 42 0 0 220 16 1012,9
71 Colina 04-05-2026 17:30 22,1 37 0 0 180 32 1013,1
70 Colina 04-05-2026 17:15 22,6 36 0 0,9 180 70 1013,1
69 Colina 04-05-2026 17:00 23 35 0 1,3 180 40 1013,2
68 Colina 04-05-2026 16:45 23,3 34 0 0,4 180 44 1013
67 Colina 04-05-2026 16:30 23,8 34 0 0,9 180 53 1012,9
66 Colina 04-05-2026 16:15 24,4 33 0 0,4 180 54 1012,9
65 Colina 04-05-2026 16:00 24,6 32 0 0,4 180 79 1012,6
64 Colina 04-05-2026 15:45 24,8 32 0 1,8 180 213 1012,8
63 Colina 04-05-2026 15:30 24,9 33 0 1,3 180 469 1012,9
62 Colina 04-05-2026 15:15 24,7 31 0 1,3 180 478 1012,9
61 Colina 04-05-2026 15:00 24,2 33 0 0,9 180 615 1013
60 Colina 04-05-2026 14:45 24,4 33 0 0,9 180 582 1013,1
59 Colina 04-05-2026 14:30 24,4 33 0 0,9 180 503 1013,3
58 Colina 04-05-2026 14:15 25 32 0 2,7 180 483 1013,4
57 Colina 04-05-2026 14:00 24,6 32 0 0,4 180 642 1013,5
56 Colina 04-05-2026 13:45 24,9 31 0 0,4 241 1046 1013,7
55 Colina 04-05-2026 13:30 24,8 32 0 0,9 180 921 1014
54 Colina 04-05-2026 13:15 24,1 31 0 0,4 211 1062 1014,3
53 Colina 04-05-2026 13:00 24,3 32 0 0,9 245 860 1014,5
52 Colina 04-05-2026 12:45 24,1 33 0 0,9 193 788 1014,8
51 Colina 04-05-2026 12:30 23,1 33 0 0 180 819 1015
50 Colina 04-05-2026 12:15 22,5 31 0 0 180 995 1015,2
49 Colina 04-05-2026 12:00 21,9 34 0 0,9 180 939 1015,3
48 Colina 04-05-2026 11:45 21,1 37 0 0 180 668 1015,4
47 Colina 04-05-2026 11:30 20,8 37 0 2,2 180 668 1015,5
46 Colina 04-05-2026 11:15 20,6 40 0 2,2 208 752 1015,6
45 Colina 04-05-2026 11:00 19,7 40 0 0,9 251 751 1015,7
44 Colina 04-05-2026 10:45 19,1 40 0 0,4 222 621 1015,7
43 Colina 04-05-2026 10:30 18,9 42 0 1,3 237 522 1015,8
42 Colina 04-05-2026 10:15 17,8 43 0 0 234 673 1015,8
41 Colina 04-05-2026 10:00 17,1 44 0 0 180 621 1016
40 Colina 04-05-2026 09:45 16,3 47 0 0 180 497 1016,2
39 Colina 04-05-2026 09:30 15,1 52 0 0 180 448 1016,2
38 Colina 04-05-2026 09:15 13,8 56 0 0 180 424 1016,4
37 Colina 04-05-2026 09:00 12,1 63 0 0 180 330 1016,3
36 Colina 04-05-2026 08:45 10,2 69 0 0 180 357 1016,1
35 Colina 04-05-2026 08:30 8,2 73 0 0 180 141 1016,2
34 Colina 04-05-2026 08:15 7,4 73 0 0 180 86 1016,1
33 Colina 04-05-2026 08:00 6,5 74 0 0 180 60 1015,8
32 Colina 04-05-2026 07:45 5,7 75 0 0 197 33 1015,8
31 Colina 04-05-2026 07:30 5,8 74 0 0 204 12 1015,8
30 Colina 04-05-2026 07:15 6,3 73 0 0 196 0 1015,7
29 Colina 04-05-2026 07:00 6,8 73 0 0 196 0 1015,8
28 Colina 04-05-2026 06:45 7,1 72 0 0 203 0 1015,7
27 Colina 04-05-2026 06:30 7,1 71 0 0 180 0 1015,7
26 Colina 04-05-2026 06:15 7,1 71 0 0 180 0 1015,4
25 Colina 04-05-2026 06:00 6,9 70 0 0 180 0 1015,5
24 Colina 04-05-2026 05:45 6,3 72 0 0 180 0 1015,4
23 Colina 04-05-2026 05:30 5,2 74 0 0 180 0 1015,3
22 Colina 04-05-2026 05:15 4,6 74 0 0 180 0 1015,3
21 Colina 04-05-2026 05:00 4,1 75 0 0 239 0 1015,2
20 Colina 04-05-2026 04:45 4,2 73 0 0 239 0 1015,1
19 Colina 04-05-2026 04:30 4,7 72 0 0 180 0 1015,1
18 Colina 04-05-2026 04:15 5 72 0 0 180 0 1015,3
17 Colina 04-05-2026 04:00 5 73 0 0 180 0 1015,5
16 Colina 04-05-2026 03:45 5 72 0 0 180 0 1015,6
15 Colina 04-05-2026 03:30 5,3 73 0 0 180 0 1015,6
14 Colina 04-05-2026 03:15 5,2 73 0 0 180 0 1015,9
13 Colina 04-05-2026 03:00 5,2 71 0 0 180 0 1016
12 Colina 04-05-2026 02:45 5,8 70 0 0 239 0 1016
11 Colina 04-05-2026 02:30 6,2 69 0 0 239 0 1016,2
10 Colina 04-05-2026 02:15 6,4 69 0 0 239 0 1016,4
9 Colina 04-05-2026 02:00 6,3 70 0 0 239 0 1016,7
8 Colina 04-05-2026 01:45 5,9 69 0 0 239 0 1016,8
7 Colina 04-05-2026 01:30 6,5 68 0 0 240 0 1017,3
6 Colina 04-05-2026 01:15 6,9 67 0 0 240 0 1017,1
5 Colina 04-05-2026 01:00 6,9 68 0 0 240 0 1017,1
4 Colina 04-05-2026 00:45 7,1 67 0 0 240 0 1017
3 Colina 04-05-2026 00:30 7,5 68 0 0 240 0 1017,2
2 Colina 04-05-2026 00:15 7,2 68 0 0 240 0 1017
1 Colina 04-05-2026 00:00 7,6 69 0 0 240 0 1017